TimeEDT,TemperatureF,Dew PointF,Humidity,Sea Level PressureIn,VisibilityMPH,Wind Direction,Wind SpeedMPH,Gust SpeedMPH,PrecipitationIn,Events,Conditions,WindDirDegrees,DateUTC
12:15 AM,57.2,50.2,77,30.00,10.0,NNW,13.8,20.7,N/A,,Mostly Cloudy,340,2013-08-13 04:15:00
12:34 AM,57.0,48.9,74,30.00,10.0,North,17.3,24.2,N/A,,Overcast,360,2013-08-13 04:34:00
12:55 AM,57.2,48.9,74,30.00,10.0,North,17.3,24.2,N/A,,Overcast,360,2013-08-13 04:55:00
1:15 AM,57.2,49.1,74,30.00,10.0,North,12.7,23.0,N/A,,Overcast,350,2013-08-13 05:15:00
1:34 AM,57.2,49.1,74,30.00,10.0,North,16.1,23.0,N/A,,Overcast,350,2013-08-13 05:34:00
1:55 AM,57.2,47.8,71,30.00,10.0,North,13.8,20.7,N/A,,Overcast,360,2013-08-13 05:55:00
2:15 AM,56.7,47.7,72,30.00,10.0,North,13.8,21.9,N/A,,Overcast,350,2013-08-13 06:15:00
2:34 AM,56.5,47.8,73,30.00,10.0,North,13.8,18.4,N/A,,Mostly Cloudy,360,2013-08-13 06:34:00
2:55 AM,56.3,48.4,75,30.00,10.0,North,12.7,18.4,N/A,,Mostly Cloudy,360,2013-08-13 06:55:00
3:14 AM,55.9,47.7,74,30.00,10.0,North,10.4,20.7,N/A,,Mostly Cloudy,360,2013-08-13 07:14:00
3:35 AM,55.4,47.1,74,30.00,10.0,North,18.4,-,N/A,,Mostly Cloudy,360,2013-08-13 07:35:00
3:54 AM,55.4,46.8,73,30.00,10.0,North,16.1,21.9,N/A,,Scattered Clouds,360,2013-08-13 07:54:00
4:15 AM,54.9,46.6,74,30.00,10.0,North,13.8,20.7,N/A,,Scattered Clouds,350,2013-08-13 08:15:00
4:35 AM,54.9,47.1,75,30.01,10.0,North,12.7,19.6,N/A,,Scattered Clouds,360,2013-08-13 08:35:00
4:54 AM,54.9,46.0,72,30.01,10.0,North,17.3,24.2,N/A,,Scattered Clouds,360,2013-08-13 08:54:00
5:15 AM,54.5,46.4,74,30.02,10.0,North,15.0,20.7,N/A,,Mostly Cloudy,360,2013-08-13 09:15:00
5:35 AM,54.5,46.0,73,30.03,10.0,North,19.6,25.3,N/A,,Mostly Cloudy,360,2013-08-13 09:35:00
5:55 AM,54.7,46.2,73,30.03,10.0,North,13.8,24.2,N/A,,Mostly Cloudy,360,2013-08-13 09:55:00
6:15 AM,54.9,47.1,75,30.03,10.0,North,16.1,21.9,N/A,,Mostly Cloudy,350,2013-08-13 10:15:00
6:35 AM,54.9,46.8,74,30.03,10.0,North,16.1,20.7,N/A,,Mostly Cloudy,350,2013-08-13 10:35:00
6:55 AM,54.9,45.1,70,30.03,10.0,North,12.7,24.2,N/A,,Mostly Cloudy,360,2013-08-13 10:55:00
7:15 AM,54.9,45.1,70,30.03,10.0,North,15.0,23.0,N/A,,Scattered Clouds,360,2013-08-13 11:15:00
7:34 AM,55.6,45.9,70,30.04,10.0,North,16.1,23.0,N/A,,Scattered Clouds,350,2013-08-13 11:34:00
7:55 AM,55.9,45.1,67,30.04,10.0,North,13.8,21.9,N/A,,Mostly Cloudy,350,2013-08-13 11:55:00
8:15 AM,56.5,45.3,66,30.04,10.0,NNW,15.0,23.0,N/A,,Mostly Cloudy,340,2013-08-13 12:15:00
8:34 AM,56.3,44.4,64,30.05,10.0,North,18.4,27.6,N/A,,Scattered Clouds,360,2013-08-13 12:34:00
8:55 AM,57.2,45.9,66,30.05,10.0,NNW,13.8,21.9,N/A,,Scattered Clouds,340,2013-08-13 12:55:00
9:15 AM,56.7,44.8,64,30.05,10.0,North,18.4,23.0,N/A,,Scattered Clouds,350,2013-08-13 13:15:00
9:34 AM,57.7,46.0,65,30.05,10.0,North,12.7,20.7,N/A,,Scattered Clouds,350,2013-08-13 13:34:00
9:55 AM,58.5,45.9,63,30.06,10.0,North,15.0,20.7,N/A,,Scattered Clouds,360,2013-08-13 13:55:00
10:15 AM,58.8,45.7,62,30.07,10.0,NNW,10.4,19.6,N/A,,Mostly Cloudy,340,2013-08-13 14:15:00
10:34 AM,58.3,45.9,63,30.07,10.0,NNW,10.4,-,N/A,,Mostly Cloudy,340,2013-08-13 14:34:00
10:55 AM,58.6,45.3,61,30.07,10.0,NNW,13.8,19.6,N/A,,Mostly Cloudy,340,2013-08-13 14:55:00
11:14 AM,58.6,46.0,63,30.07,10.0,NNW,13.8,20.7,N/A,,Mostly Cloudy,340,2013-08-13 15:14:00
11:35 AM,59.0,46.6,63,30.08,10.0,North,10.4,16.1,N/A,,Scattered Clouds,350,2013-08-13 15:35:00
11:55 AM,59.2,45.9,61,30.08,10.0,North,11.5,-,N/A,,Scattered Clouds,360,2013-08-13 15:55:00
12:14 PM,60.3,46.9,61,30.08,10.0,NNW,12.7,20.7,N/A,,Scattered Clouds,330,2013-08-13 16:14:00
12:35 PM,60.6,46.9,61,30.08,10.0,NNW,13.8,18.4,N/A,,Scattered Clouds,340,2013-08-13 16:35:00
12:55 PM,59.7,47.3,63,30.08,10.0,NNW,10.4,18.4,N/A,,Scattered Clouds,330,2013-08-13 16:55:00
1:15 PM,60.8,46.8,60,30.08,10.0,NNW,12.7,21.9,N/A,,Scattered Clouds,330,2013-08-13 17:15:00
1:35 PM,61.9,46.2,56,30.08,10.0,NNW,12.7,19.6,N/A,,Mostly Cloudy,330,2013-08-13 17:35:00
1:54 PM,60.4,46.2,59,30.08,10.0,North,13.8,19.6,N/A,,Overcast,350,2013-08-13 17:54:00
2:15 PM,59.7,46.2,61,30.08,10.0,North,13.8,17.3,N/A,,Mostly Cloudy,350,2013-08-13 18:15:00
2:35 PM,60.6,45.3,57,30.08,10.0,North,12.7,18.4,N/A,,Overcast,350,2013-08-13 18:35:00
2:54 PM,60.4,45.1,57,30.08,10.0,NNW,15.0,20.7,N/A,,Overcast,330,2013-08-13 18:54:00
3:15 PM,59.9,45.7,59,30.09,10.0,North,17.3,21.9,N/A,,Overcast,350,2013-08-13 19:15:00
3:35 PM,60.3,45.3,58,30.09,10.0,NNW,13.8,23.0,N/A,,Overcast,340,2013-08-13 19:35:00
3:54 PM,59.7,45.1,59,30.09,10.0,NNW,13.8,25.3,N/A,,Overcast,340,2013-08-13 19:54:00
4:15 PM,59.5,44.6,58,30.09,10.0,NNW,16.1,24.2,N/A,,Overcast,340,2013-08-13 20:15:00
4:35 PM,59.4,44.4,58,30.10,10.0,NNW,15.0,23.0,N/A,,Overcast,330,2013-08-13 20:35:00
4:54 PM,59.4,43.3,55,30.10,10.0,NNW,19.6,26.5,N/A,,Overcast,340,2013-08-13 20:54:00
5:15 PM,58.8,45.3,61,30.10,10.0,North,17.3,25.3,N/A,,Overcast,350,2013-08-13 21:15:00
5:35 PM,59.0,45.1,60,30.10,10.0,North,19.6,27.6,N/A,,Overcast,350,2013-08-13 21:35:00
5:55 PM,59.2,46.4,63,30.10,10.0,NNW,13.8,23.0,N/A,,Overcast,340,2013-08-13 21:55:00
6:15 PM,58.3,45.7,63,30.10,10.0,NNW,13.8,24.2,N/A,,Overcast,340,2013-08-13 22:15:00
6:34 PM,58.1,47.3,67,30.11,10.0,North,11.5,23.0,N/A,,Overcast,360,2013-08-13 22:34:00
6:55 PM,58.1,46.9,66,30.12,10.0,North,12.7,21.9,N/A,,Overcast,350,2013-08-13 22:55:00
7:15 PM,58.1,47.1,67,30.11,10.0,North,16.1,21.9,N/A,,Overcast,360,2013-08-13 23:15:00
7:35 PM,58.1,46.8,66,30.12,10.0,North,13.8,19.6,N/A,,Overcast,360,2013-08-13 23:35:00
7:55 PM,58.5,46.8,65,30.12,10.0,NNW,13.8,19.6,N/A,,Overcast,340,2013-08-13 23:55:00
8:14 PM,58.3,46.6,65,30.12,10.0,NNW,11.5,20.7,N/A,,Overcast,340,2013-08-14 00:14:00
8:35 PM,58.3,47.3,67,30.12,10.0,NNW,10.4,17.3,N/A,,Overcast,340,2013-08-14 00:35:00
8:55 PM,58.5,47.7,67,30.12,10.0,North,11.5,19.6,N/A,,Overcast,350,2013-08-14 00:55:00
9:14 PM,58.6,47.7,67,30.12,10.0,NNW,11.5,21.9,N/A,,Overcast,340,2013-08-14 01:14:00
9:35 PM,58.6,47.3,66,30.13,10.0,North,12.7,25.3,N/A,,Overcast,350,2013-08-14 01:35:00
9:55 PM,58.5,47.7,67,30.13,10.0,North,15.0,20.7,N/A,,Overcast,350,2013-08-14 01:55:00
10:14 PM,58.5,47.7,67,30.14,10.0,North,10.4,23.0,N/A,,Overcast,350,2013-08-14 02:14:00
10:35 PM,57.7,48.2,70,30.14,10.0,NNW,12.7,23.0,N/A,,Mostly Cloudy,330,2013-08-14 02:35:00
10:55 PM,57.4,48.0,71,30.14,10.0,NNW,11.5,18.4,N/A,,Mostly Cloudy,340,2013-08-14 02:55:00
11:14 PM,57.6,48.4,71,30.14,10.0,North,15.0,21.9,N/A,,Mostly Cloudy,350,2013-08-14 03:14:00
11:35 PM,57.9,49.5,73,30.14,10.0,NNW,12.7,19.6,N/A,,Overcast,340,2013-08-14 03:35:00
11:55 PM,57.6,49.3,74,30.15,10.0,NNW,12.7,21.9,N/A,,Mostly Cloudy,340,2013-08-14 03:55:00